Wolf Creek, OR

4:28 PM PST on December 03, 2016 (GMT -0800)
Sexton Summit

Weather History for KSXT - January, 2014

Change the Weather History Date:

Saturday, January 4, 2014

  Actual Average Record
Temperature  
Mean Temperature 40 °F -  
Max Temperature 50 °F 40 °F 59 °F (2001)
Min Temperature 30 °F 32 °F 23 °F (1997)
Degree Days  
Heating Degree Days 25    
Moisture  
Dew Point 12 °F    
Average Humidity 38    
Maximum Humidity 92    
Minimum Humidity 14    
Precipitation  
Precipitation 0.00 in - - ()
Sea Level Pressure  
Sea Level Pressure 30.22 in    
Wind  
Wind Speed 9 mph (ESE)    
Max Wind Speed 17 mph    
Max Gust Speed 26 mph    
Visibility 10 miles    
Events      
Averages and records for this station are not official NWS values.
T = Trace of Precipitation, MM = Missing Value Source: NWS Daily Summary

Daily Weather History Graph

Daily Weather History Graph

Search for Another Location

Airport or City:

Trip Planner

Search our weather history database for the weather conditions in past years. The results will help you decide how hot, cold, wet, or windy it might be!

Date:

Astronomy

Jan. 04, 2014 Rise Set
Actual Time 7:43 AM PST 4:53 PM PST
Civil Twilight 7:11 AM PST 5:25 PM PST
Nautical Twilight 6:36 AM PST 6:00 PM PST
Astronomical Twilight 6:02 AM PST 6:35 PM PST
Moon 9:47 AM PST 9:26 PM PST
Length of Visible Light 10h 13m
Length of Day
9h 10m
Waxing Crescent, 16% of the Moon is Illuminated
Jan 4
Waxing Crescent
Jan 7
First Quarter
Jan 15
Full
Jan 23
Last Quarter
Jan 30
New

Hourly Weather History & Observations

Time (PST) Temp. Windchill Dew Point Humidity Pressure Visibility Wind Dir Wind Speed Gust Speed Precip Events Conditions
12:56 AM 35.1 °F 31.0 °F 9.0 °F 34% 30.13 in 10.0 mi East 4.6 mph - N/A   Clear
1:56 AM 34.0 °F 28.0 °F 21.0 °F 59% 30.14 in 10.0 mi ENE 6.9 mph - N/A   Clear
2:56 AM 34.0 °F 28.8 °F 21.9 °F 61% 30.16 in 10.0 mi East 5.8 mph - N/A   Clear
3:56 AM 32.0 °F 24.8 °F 25.0 °F 75% 30.17 in 10.0 mi East 8.1 mph - N/A   Clear
4:56 AM 32.0 °F 24.2 °F 27.0 °F 82% 30.18 in 10.0 mi East 9.2 mph - N/A   Clear
5:56 AM 30.9 °F 22.2 °F 28.9 °F 92% 30.19 in 10.0 mi East 10.4 mph - N/A   Clear
6:56 AM 32.0 °F 23.0 °F 27.0 °F 82% 30.19 in 10.0 mi East 11.5 mph 18.4 mph N/A   Clear
7:56 AM 34.0 °F 25.0 °F 23.0 °F 64% 30.20 in 10.0 mi ESE 12.7 mph - N/A   Clear
8:56 AM 36.0 °F 27.1 °F 23.0 °F 59% 30.23 in 10.0 mi ESE 13.8 mph 20.7 mph N/A   Clear
9:56 AM 39.9 °F 31.8 °F 18.0 °F 41% 30.22 in 10.0 mi ESE 15.0 mph - N/A   Clear
10:56 AM 43.0 °F 35.1 °F 12.9 °F 30% 30.22 in 10.0 mi ESE 17.3 mph 26.5 mph N/A   Clear
11:56 AM 45.0 °F 39.7 °F 14.0 °F 29% 30.22 in 10.0 mi East 10.4 mph - N/A   Clear
12:56 PM 46.0 °F 41.0 °F 8.1 °F 21% 30.21 in 10.0 mi ESE 10.4 mph - N/A   Clear
1:56 PM 50.0 °F - 3.9 °F 15% 30.21 in 10.0 mi Variable 6.9 mph - N/A   Clear
2:56 PM 48.9 °F - 5.0 °F 17% 30.22 in 10.0 mi East 5.8 mph - N/A   Clear
3:56 PM 46.0 °F 41.0 °F 3.9 °F 18% 30.24 in 10.0 mi ESE 10.4 mph - N/A   Clear
4:56 PM 44.1 °F 39.0 °F 6.1 °F 21% 30.24 in 10.0 mi East 9.2 mph - N/A   Clear
5:56 PM 44.1 °F 39.0 °F 3.9 °F 19% 30.25 in 10.0 mi ESE 9.2 mph - N/A   Clear
6:56 PM 45.0 °F 39.3 °F 1.0 °F 16% 30.26 in 10.0 mi ESE 11.5 mph - N/A   Clear
7:56 PM 45.0 °F 40.1 °F 1.0 °F 16% 30.27 in 10.0 mi East 9.2 mph - N/A   Clear
8:56 PM 44.1 °F 38.1 °F -0.0 °F 16% 30.27 in 10.0 mi ESE 11.5 mph 18.4 mph N/A   Clear
9:56 PM 44.1 °F 38.6 °F -0.9 °F 15% 30.27 in 10.0 mi East 10.4 mph 19.6 mph N/A   Clear
10:56 PM 44.1 °F 38.1 °F -2.9 °F 14% 30.26 in 10.0 mi East 11.5 mph 23.0 mph N/A   Clear
11:56 PM 43.0 °F 36.4 °F -0.9 °F 16% 30.26 in 10.0 mi ESE 12.7 mph 19.6 mph N/A   Clear